| time (UTC) | temp C | wind direction | speed KPH | gust KPH | rain 1hr cm | rain 24hr cm | rain mn cm | humidity % | barometer mb |
| 20260906230051 | 33 | 121 | 11.3 | 19.3 | 0.00 | 0.00 | 0.00 | 47 | 1012.6 |
| 20260906224540 | 31 | 146 | 9.7 | 17.7 | 0.00 | 0.00 | 0.00 | 52 | 1012.8 |
| 20260906223051 | 31 | 110 | 6.4 | 16.1 | 0.00 | 0.00 | 0.00 | 51 | 1013.0 |
| 20260906221544 | 32 | 96 | 11.3 | 17.7 | 0.00 | 0.00 | 0.00 | 50 | 1013.1 |
| 20260906220042 | 31 | 100 | 8.0 | 12.9 | 0.00 | 0.00 | 0.00 | 50 | 1013.2 |
| 20260906214538 | 31 | 113 | 6.4 | 16.1 | 0.00 | 0.00 | 0.00 | 51 | 1013.2 |
| 20260906213041 | 32 | 84 | 11.3 | 20.9 | 0.00 | 0.00 | 0.00 | 48 | 1013.4 |
| 20260906211545 | 32 | 124 | 9.7 | 17.7 | 0.00 | 0.00 | 0.00 | 53 | 1013.5 |
| 20260906210047 | 31 | 103 | 4.8 | 11.3 | 0.00 | 0.00 | 0.00 | 55 | 1013.8 |
| 20260906204543 | 30 | 131 | 6.4 | 8.0 | 0.00 | 0.00 | 0.00 | 63 | 1013.9 |
| 20260906203042 | 27 | 75 | 3.2 | 6.4 | 0.00 | 0.00 | 0.00 | 92 | 1014.1 |
| 20260906201544 | 26 | 150 | 3.2 | 6.4 | 0.00 | 0.00 | 0.00 | 94 | 1014.3 |
| 20260906200036 | 25 | 203 | 1.6 | 8.0 | 0.00 | 0.00 | 0.00 | 95 | 1014.4 |
| 20260906194539 | 24 | 127 | 4.8 | 9.7 | 0.00 | 0.00 | 0.00 | 94 | 1014.6 |
| 20260906193040 | 23 | 153 | 8.0 | 17.7 | 0.00 | 0.00 | 0.00 | 93 | 1014.9 |
| 20260906191550 | 23 | 105 | 4.8 | 11.3 | 0.00 | 0.00 | 0.00 | 94 | 1015.1 |
| 20260906190039 | 23 | 101 | 1.6 | 11.3 | 0.00 | 0.00 | 0.00 | 95 | 1015.3 |
| 20260906184554 | 22 | 75 | 1.6 | 11.3 | 0.00 | 0.00 | 0.00 | 94 | 1015.4 |
| 20260906183044 | 22 | 327 | 4.8 | 16.1 | 0.00 | 0.00 | 0.00 | 91 | 1015.6 |
| 20260906181539 | 25 | 314 | 6.4 | 17.7 | 0.00 | 0.00 | 0.00 | 77 | 1015.5 |
| 20260906180058 | 27 | 15 | 12.9 | 22.5 | 0.00 | 0.00 | 0.00 | 67 | 1015.6 |
| 20260906174543 | 32 | 266 | 0.0 | 12.9 | 0.00 | 0.00 | 0.00 | 50 | 1015.6 |
| 20260906173042 | 32 | 0 | 1.6 | 16.1 | 0.00 | 0.00 | 0.00 | 48 | 1015.7 |
| 20260906171541 | 32 | 44 | 4.8 | 12.9 | 0.00 | 0.00 | 0.00 | 47 | 1015.9 |
| 20260906170043 | 32 | 199 | 0.0 | 11.3 | 0.00 | 0.00 | 0.00 | 50 | 1016.1 |
| 20260906164543 | 31 | 149 | 3.2 | 14.5 | 0.00 | 0.00 | 0.00 | 50 | 1016.2 |
| 20260906163124 | 32 | 166 | 3.2 | 8.0 | 0.00 | 0.00 | 0.00 | 50 | 1016.1 |
| 20260906161539 | 32 | 214 | 6.4 | 12.9 | 0.00 | 0.00 | 0.00 | 50 | 1016.0 |
| 20260906160041 | 31 | 210 | 1.6 | 12.9 | 0.00 | 0.00 | 0.00 | 50 | 1016.0 |
| 20260906154544 | 31 | 200 | 8.0 | 14.5 | 0.00 | 0.00 | 0.00 | 53 | 1016.0 |
| 20260906153050 | 30 | 240 | 0.0 | 3.2 | 0.00 | 0.00 | 0.00 | 63 | 1015.8 |
| 20260906151540 | 30 | 0 | 1.6 | 3.2 | 0.00 | 0.00 | 0.00 | 62 | 1015.7 |
| 20260906150043 | 27 | 0 | 0.0 | 3.2 | 0.00 | 0.00 | 0.00 | 68 | 1015.8 |
| 20260906144539 | 28 | 0 | 1.6 | 4.8 | 0.00 | 0.00 | 0.00 | 68 | 1015.8 |
| 20260906143045 | 27 | 0 | 0.0 | 0.0 | 0.00 | 0.00 | 0.00 | 70 | 1015.5 |
| 20260906141542 | 27 | 0 | 0.0 | 3.2 | 0.00 | 0.00 | 0.00 | 69 | 1015.5 |
| 20260906140044 | 27 | 0 | 0.0 | 3.2 | 0.00 | 0.00 | 0.00 | 67 | 1015.5 |
| 20260906134539 | 28 | 288 | 0.0 | 0.0 | 0.00 | 0.00 | 0.00 | 65 | 1015.2 |
| 20260906133043 | 27 | 0 | 0.0 | 1.6 | 0.00 | 0.00 | 0.00 | 67 | 1015.3 |
| 20260906131550 | 26 | 0 | 0.0 | 0.0 | 0.00 | 0.00 | 0.00 | 73 | 1015.1 |
| 20260906130045 | 25 | 0 | 0.0 | 0.0 | 0.00 | 0.00 | 0.00 | 74 | 1014.9 |
| 20260906124539 | 22 | 0 | 0.0 | 0.0 | 0.00 | 0.00 | 0.00 | 85 | 1014.7 |
| 20260906123039 | 20 | 0 | 0.0 | 0.0 | 0.00 | 0.00 | 0.00 | 86 | 1014.4 |
| 20260906121543 | 20 | 0 | 0.0 | 0.0 | 0.00 | 0.00 | 0.00 | 86 | 1014.4 |
| 20260906120047 | 20 | 0 | 0.0 | 0.0 | 0.00 | 0.00 | 0.00 | 86 | 1014.3 |
| 20260906114538 | 20 | 0 | 0.0 | 0.0 | 0.00 | 0.00 | 0.00 | 86 | 1014.2 |
| 20260906113040 | 20 | 0 | 0.0 | 0.0 | 0.00 | 0.00 | 0.00 | 85 | 1014.1 |
| 20260906111542 | 20 | 0 | 0.0 | 0.0 | 0.00 | 0.00 | 0.00 | 85 | 1014.1 |
| 20260906110043 | 20 | 0 | 0.0 | 1.6 | 0.00 | 0.00 | 0.00 | 83 | 1013.9 |
| 20260906104540 | 21 | 0 | 0.0 | 0.0 | 0.00 | 0.00 | 0.00 | 82 | 1013.8 |
| 20260906103035 | 21 | 0 | 0.0 | 0.0 | 0.00 | 0.00 | 0.00 | 82 | 1013.7 |
| 20260906101544 | 22 | 0 | 0.0 | 0.0 | 0.00 | 0.00 | 0.00 | 80 | 1013.8 |
| 20260906100042 | 22 | 0 | 0.0 | 0.0 | 0.00 | 0.00 | 0.00 | 78 | 1013.7 |
| 20260906094539 | 22 | 235 | 0.0 | 6.4 | 0.00 | 0.00 | 0.00 | 80 | 1013.7 |
| 20260906093051 | 22 | 0 | 0.0 | 1.6 | 0.00 | 0.00 | 0.00 | 78 | 1013.7 |
| 20260906091541 | 22 | 0 | 0.0 | 1.6 | 0.00 | 0.00 | 0.00 | 78 | 1013.8 |
| 20260906090044 | 22 | 0 | 0.0 | 0.0 | 0.00 | 0.00 | 0.00 | 78 | 1013.7 |
| 20260906084548 | 22 | 0 | 0.0 | 0.0 | 0.00 | 0.00 | 0.00 | 76 | 1013.7 |
| 20260906083043 | 22 | 0 | 0.0 | 1.6 | 0.00 | 0.00 | 0.00 | 75 | 1013.8 |
| 20260906081539 | 23 | 0 | 0.0 | 1.6 | 0.00 | 0.00 | 0.00 | 74 | 1013.7 |
| 20260906080052 | 23 | 0 | 0.0 | 0.0 | 0.00 | 0.00 | 0.00 | 73 | 1013.6 |
| 20260906074544 | 23 | 186 | 0.0 | 1.6 | 0.00 | 0.00 | 0.00 | 72 | 1013.7 |
| 20260906073036 | 23 | 204 | 0.0 | 4.8 | 0.00 | 0.00 | 0.00 | 71 | 1013.9 |
| 20260906071543 | 24 | 195 | 1.6 | 4.8 | 0.00 | 0.00 | 0.00 | 70 | 1014.0 |
| 20260906070041 | 23 | 158 | 3.2 | 6.4 | 0.00 | 0.00 | 0.00 | 70 | 1014.1 |
| 20260906064539 | 23 | 146 | 3.2 | 6.4 | 0.00 | 0.00 | 0.00 | 72 | 1014.3 |
| 20260906063040 | 23 | 140 | 0.0 | 3.2 | 0.00 | 0.00 | 0.00 | 72 | 1014.4 |
| 20260906061541 | 23 | 120 | 3.2 | 8.0 | 0.00 | 0.00 | 0.00 | 71 | 1014.4 |
| 20260906060055 | 22 | 53 | 6.4 | 12.9 | 0.00 | 0.00 | 0.00 | 75 | 1014.3 |
| 20260906054544 | 23 | 0 | 0.0 | 0.0 | 0.00 | 0.00 | 0.00 | 73 | 1014.2 |
| 20260906053043 | 23 | 0 | 0.0 | 0.0 | 0.00 | 0.00 | 0.00 | 72 | 1014.2 |
| 20260906051542 | 25 | 0 | 0.0 | 0.0 | 0.00 | 0.00 | 0.00 | 70 | 1014.4 |
| 20260906050044 | 25 | 0 | 0.0 | 0.0 | 0.00 | 0.00 | 0.00 | 69 | 1014.3 |
| 20260906044540 | 25 | 0 | 0.0 | 1.6 | 0.00 | 0.00 | 0.00 | 69 | 1014.3 |
| 20260906043043 | 25 | 0 | 0.0 | 0.0 | 0.00 | 0.00 | 0.00 | 69 | 1014.3 |
| 20260906041545 | 25 | 0 | 0.0 | 1.6 | 0.00 | 0.00 | 0.00 | 68 | 1014.0 |
| 20260906040048 | 25 | 108 | 1.6 | 3.2 | 0.00 | 0.00 | 0.00 | 68 | 1014.2 |
| 20260906034540 | 26 | 163 | 1.6 | 1.6 | 0.00 | 0.00 | 0.00 | 66 | 1014.3 |
| 20260906033039 | 26 | 0 | 0.0 | 3.2 | 0.00 | 0.00 | 0.00 | 64 | 1014.3 |
| 20260906031541 | 26 | 110 | 1.6 | 3.2 | 0.00 | 0.00 | 0.00 | 62 | 1014.0 |
| 20260906030043 | 26 | 0 | 1.6 | 1.6 | 0.00 | 0.00 | 0.00 | 61 | 1013.7 |
| 20260906024544 | 27 | 105 | 0.0 | 3.2 | 0.00 | 0.00 | 0.00 | 59 | 1013.5 |
| 20260906023046 | 27 | 108 | 1.6 | 4.8 | 0.00 | 0.00 | 0.00 | 56 | 1013.1 |
| 20260906021545 | 28 | 101 | 0.0 | 4.8 | 0.00 | 0.00 | 0.00 | 54 | 1013.0 |
| 20260906020042 | 28 | 114 | 1.6 | 6.4 | 0.00 | 0.00 | 0.00 | 52 | 1012.5 |
| 20260906014545 | 29 | 134 | 4.8 | 8.0 | 0.00 | 0.00 | 0.00 | 51 | 1012.4 |
| 20260906013044 | 30 | 138 | 4.8 | 8.0 | 0.00 | 0.00 | 0.00 | 49 | 1012.2 |
| 20260906011546 | 30 | 124 | 6.4 | 9.7 | 0.00 | 0.00 | 0.00 | 47 | 1012.1 |
| 20260906010039 | 31 | 117 | 4.8 | 9.7 | 0.00 | 0.00 | 0.00 | 45 | 1012.2 |
| 20260906004539 | 32 | 129 | 4.8 | 11.3 | 0.00 | 0.00 | 0.00 | 43 | 1012.0 |
| 20260906003041 | 33 | 113 | 8.0 | 12.9 | 0.00 | 0.00 | 0.00 | 38 | 1012.0 |
| 20260906001541 | 35 | 113 | 8.0 | 16.1 | 0.00 | 0.00 | 0.00 | 37 | 1011.8 |
| 20260906000041 | 35 | 131 | 8.0 | 16.1 | 0.00 | 0.00 | 0.00 | 36 | 1011.8 |
| 20260905234540 | 35 | 111 | 8.0 | 24.1 | 0.00 | 0.00 | 0.00 | 36 | 1011.7 |
| 20260905233102 | 36 | 77 | 14.5 | 20.9 | 0.00 | 0.00 | 0.00 | 35 | 1011.6 |
| 20260905231551 | 36 | 87 | 12.9 | 19.3 | 0.00 | 0.00 | 0.00 | 35 | 1011.5 |